Powrót do katalogu

SL-14 R/B

AktywnyPO
NORAD 13553·ROCKET BODY·🇷🇺 Russia

Wystrzelony Sep 16, 1982 z Plesetsk Cosmodrome

Loading…

Następne Przeloty (najbliższe 24 godziny)

TLE

ŚwieżeSource: Space-Track

Epoka: Sep 14, 2026, 22:06 UTC

1 13553U 82092B   26257.92145729  .00000287  00000-0  29352-4 0  9991
2 13553  82.5698 324.3409 0021186  37.0381 141.5690 14.86802341357044

Śledź SL-14 R/B w czasie rzeczywistym z AllMySat

Download on the App Store